GOES 3 [-]

Last updated on Nov. 21, 2019, 4:15 a.m. UTC

1 10953U 78062A   19323.89348392 -.00000311  00000-0  00000-0 0  9991
2 10953  12.0580 321.4067 0003753 348.8559 198.9621  0.99362470104673
UTC
Height (km)
Latitude
Longitude
Inclination
Orbital Period
UTC large
Height (km)
Speed (km/s)
/
Latitude / Longitude
Inclination (degrees)
Orbital Period (minutes)
Azimuth
Elevation
Range (km)
Doppler Factor
iOS Compass Heading
iOS Angle

Next 30 passes for location: Hong Kong

Rise time Rise Azimuth (degrees) Set time Set Azimuth (degrees) Duration Max altitude (degrees)

No matching passes for this satellites